Regional Weather Roundup
Issued by NWS Glasgow, MT

Home | Current Version | Previous Version | Text Only | Print | Product List | Glossary On
Versions: 1 2 3 4 5 6 7 8 9 10 11 12 13 14 15 16 17 18 19 20 21 22 23 24 25 26 27
000
ASUS45 KGGW 260515
RWRGGW
HOURLY WEATHER ROUNDUP FOR NORTHEAST MONTANA
NATIONAL WEATHER SERVICE GLASGOW MONTANA
1100 PM MDT SAT OCT 25 2014

NOTE: "FAIR" INDICATES FEW OR NO CLOUDS BELOW 12,000 FEET WITH NO
SIGNIFICANT WEATHER AND/OR OBSTRUCTIONS TO VISISBILITY.

NORTHEAST MONTANA


CITY           SKY/WX    TMP DP  RH WIND       PRES   REMARKS
GLASGOW        PTCLDY    50  32  50 E17       29.61F
PLENTYWOOD       N/A     49  32  52 SE9         N/A
WOLF POINT     CLOUDY    48  33  56 NE9       29.66F
JORDAN           N/A     56  35  45 VRB3      29.62F
WINNETT          N/A     50  35  56 W3          N/A
SIDNEY         MOCLDY    48  32  53 CALM      29.73F
GLENDIVE       MOCLDY    54  34  47 SE8       29.70F
MALTA            N/A     49  38  65 E1          N/A
SCOBEY           N/A     52  29  41 E18G28    29.68F

FORT PECK REPORTS


CITY           SKY/WX    TMP DP  RH WIND       PRES   REMARKS
FORT PECK        N/A     50  33  52 E14         N/A
THE PINES        N/A     53  40  61 NE3         N/A

SOUTHEAST MONTANA


CITY           SKY/WX    TMP DP  RH WIND       PRES   REMARKS
BILLINGS       CLOUDY    53  35  50 W9        29.68F
MILES CITY     CLOUDY    57  37  47 SE17G25   29.63F
BAKER          MOCLDY    53  32  44 SE26G39   29.72F
LIVINGSTON     CLEAR     64  28  25 W13G22    29.69F

CENTRAL MONTANA


CITY           SKY/WX    TMP DP  RH WIND       PRES   REMARKS
HAVRE          PTCLDY    41  35  79 CALM      29.55F
LEWISTOWN      PTCLDY    53  34  48 SE7       29.66F
GREAT FALLS    MOCLDY    50  40  68 W13G18    29.62R
CUT BANK       PTCLDY    46  37  71 CALM      29.58F
HELENA         LGT RAIN  58  39  49 SW25G37   29.69R
BUTTE          MOCLDY    55  32  41 W13G28    29.81R
BOZEMAN        CLEAR     45  33  63 S8        29.70F

WESTERN MONTANA


CITY           SKY/WX    TMP DP  RH WIND       PRES   REMARKS
MISSOULA       PTCLDY    44  42  93 SE13      29.68F
KALISPELL      NOT AVBL

NORTH DAKOTA


CITY           SKY/WX    TMP DP  RH WIND       PRES   REMARKS
WILLISTON      MOCLDY    54  30  40 SE14      29.75F
DICKINSON      CLEAR     49  29  46 SE16      29.78F
MINOT          PTCLDY    39  29  67 SE7       29.87F
BISMARCK       CLEAR     44  33  65 SE10      29.91F

SOUTHERN SASKATCHEWAN


CITY           SKY/WX    TMP DP  RH WIND       PRES   REMARKS
REGINA         MOCLDY    46  30  53 E18       29.76F
ESTEVAN        PTCLDY    39  32  75 E13       29.80F
SWIFT CURRENT  CLEAR     46  32  57 SE21G26   29.58F




USA.gov is the U.S. government's official web portal to all federal, state and local government web resources and services.